Probability
0 0 0 0 0 0 0 0 0 0 0 0 0 0 0 0 0 0 0 0 0 0 0 0 0 0 0 0 0 0 0 0 0 0 0 0 0 0 0 0 0 0 0 0
0 0 0 0 0 0 0 0 0 0 0 0 0 0 0 0 0 0 0 0 0 0 0 0 0 0 0 0 0 0 0 0 0 0 0 0 0 0 0 0 0 0 0 0
0 0 0 0 0 0 0 0 0 0 0 0 0 0 0 0 0 0 0 0 0 0 0 0 0 0 0 0 0 0 0 0 0 0 0 0 0 0 0 0 0 0 0 0
0 0 0 0 0 0 0 0 0 0 0 0 0 0 0 0 0 0 0 0 0 0 0 0 0 0 0 0 0 0 0 0 0 0 0 0 0 0 0 0 0 0 0 0
0 0 0 0 0 0 0 0 0 0 0 0 0 0 0 0 0 0 0 0 0 0 0 0 0 0 0 0 0 0 0 0 0 0 0 0 0 0 0 0 0 0 0 0
0 0 0 0 0 0 0 0 0 0 0 0 0 0 0 0 0 0 0 0 0 0 0 0 0 0 0 0 0 0 0 0 0 0 0 0 0 0 0 0 0 0 0 0
0 0 0 0 0 0 0 0 0 0 0 0 0 0 0 0 0 0 0 0 0 0 0 0 0 0 0 0 0 0 0 0 0 0 0 0 0 0 0 0 0 0 0 0
0 0 0 0 0 0 0 0 0 0 0 0 0 0 0 0 0 0 0 0 0 0 0 0 0 0 0 0 0 0 0 0 0 0 0 0 0 0 0 0 0 0 0 0
0 0 0 0 0 0 0 0 0 0 0 0 0 0 0 0 0 0 0 0 0 0 0 0 0 0 0 0 0 0 0 0 0 0 0 0 0 0 0 0 0 0 0 0
0 0 0 0 0 0 0 0 0 0 0 0 0 0 0 0 0 0 0 0 0 0 0 0 0 0 0 0 0 0 0 0 0 0 0 0 0 0 0 0 0 0 0 0
0 0 0 0 0 0 0 0 0 0 0 0 0 0 0 0 0 0 0 0 0 0 0 0 0 0 0 0 0 0 0 0 0 0 0 0 0 0 0 0 0 0 0 0
0 0 0 0 0 0 0 0 0 0 0 0 0 0 0 0 0 0 0 0 0 0 0 0 0 0 0 0 0 0 0 0 0 0 0 0 0 0 0 0 0 0 0 0
0 0 0 0 0 0 0 0 0 0 0 0 0 0 0 0 0 0 0 0 0 0 0 0 0 0 0 0 0 0 0 0 0 0 0 0 0 0 0 0 0 0 0 0
0 0 0 0 0 0 0 0 0 0 0 0 0 0 0 0 0 0 0 0 0 0 0 0 0 0 0 0 0 0 0 0 0 0 0 0 0 0 0 0 0 0 0 0
0 0 0 0 0 0 0 0 0 0 0 0 0 0 0 0 0 0 0 0 0 0 0 0 0 0 0 0 0 0 0 0 0 0 0 0 0 0 0 0 0 0 0 0
0 0 0 0 0 0 0 0 0 0 0 0 0 0 0 0 0 0 0 0 0 0 0 0 0 0 0 0 0 0 0 0 0 0 0 0 0 0 0 0 0 0 0 0
0 0 0 0 0 0 0 0 0 0 0 0 0 0 0 0 0 0 0 0 0 0 0 0 0 0 0 0 0 0 0 0 0 0 0 0 0 0 0 0 0 0 0 0
0 0 0 0 0 0 0 0 0 0 0 0 0 0 0 0 0 0 0 0 0 0 0 0 0 0 0 0 0 0 0 0 0 0 0 0 0 0 0 0 0 0 0 0
0 0 0 0 0 0 0 0 0 0 0 0 0 0 0 0 0 0 0 0 0 0 0 0 0 0 0 0 0 0 0 0 0 0 0 0 0 0 0 0 0 0 0 0
0 0 0 0 0 0 0 0 0 0 0 0 0 0 0 0 0 0 0 0 0 0 0 0 0 0 0 0 0 0 0 0 0 0 0 0 0 0 0 0 0 0 0 0
0 0 0 0 0 0 0 0 0 0 0 0 0 0 0 0 0 0 0 0 0 0 0 0 0 0 0 0 0 0 0 0 0 0 0 0 0 0 0 0 0 0 0 0
0 0 0 0 0 0 0 0 0 0 0 0 0 0 0 0 0 0 0 0 0 0 0 0 0 0 0 0 0 0 0 0 0 0 0 0 0 0 0 0 0 0 0 0
0 0 0 0 0 0 0 0 0 0 0 0 0 0 0 0 0 0 0 0 0 0 0 0 0 0 0 0 0 0 0 0 0 0 0 0 0 0 0 0 0 0 0 0
0 0 0 0 0 0 0 0 0 0 0 0 0 0 0 0 0 0 0 0 0 0 0 0 0 0 0 0 0 0 0 0 0 0 0 0 0 0 0 0 0 0 0 0
0 0 0 0 0 0 0 0 0 0 0 0 0 0 0 0 0 0 0 0 0 0 0 0 0 0 0 0 0 0 0 0 0 0 0 0 0 0 0 0 0 0 0 0
0 0 0 0 0 0 0 0 0 0 0 0 0 0 0 0 0 0 0 0 0 0 0 0 0 0 0 0 0 0 0 0 0 0 0 0 0 0 0 0 0 0 0 0
0 0 0 0 0 0 0 0 0 0 0 0 0 0 0 0 0 0 0 0 0 0 0 0 0 0 0 0 0 0 0 0 0 0 0 0 0 0 0 0 0 0 0 0
Wind_Speed
2 4 8 9 11 13 12 13 12 11 11 11 11 9 7 6 5 5 5 5 5 5 5 5 6 6 6 6 7 7 7 7 7 6 6 6 7 7 7 6 6 6 6 6
2 3 3 4 9 16 16 13 12 7 9 6 7 5 5 6 6 6 5 4 4 4 4 5 5 5 6 6 6 6 6 6 6 6 6 6 7 7 7 7 6 6 6 7
4 4 4 9 13 13 9 8 10 15 12 6 7 8 8 7 6 6 5 4 4 3 3 4 4 4 5 5 5 5 5 5 5 6 7 7 7 7 7 7 7 7 7 6
6 6 11 10 4 11 11 9 10 6 4 8 9 7 4 5 6 6 5 3 2 2 2 3 3 4 4 4 5 5 6 6 6 7 8 8 7 7 7 6 6 7 7 7
6 7 7 7 4 8 9 10 10 9 6 6 9 7 2 2 4 5 4 3 1 1 2 3 4 5 5 6 6 6 7 7 8 8 9 9 9 8 7 7 7 6 6 6
5 6 10 7 3 5 6 8 5 10 11 11 11 7 6 6 4 4 3 2 1 2 2 3 4 4 5 6 6 7 7 8 8 7 8 9 9 9 7 6 7 7 6 5
6 5 9 6 3 8 8 9 3 6 9 10 7 5 7 7 5 3 2 1 1 2 2 3 3 4 5 6 6 6 6 7 8 7 7 8 8 6 7 6 6 6 6 5
7 7 11 5 8 10 6 3 5 5 6 8 7 7 6 5 4 2 1 1 1 2 3 4 3 4 5 6 6 6 7 8 8 8 7 6 7 7 6 6 6 6 5 6
9 8 1 5 5 3 6 7 6 6 7 8 7 5 5 4 2 1 1 1 2 3 5 5 4 3 6 7 7 7 8 9 9 9 7 7 7 7 6 5 4 5 4 5
4 4 1 2 3 4 5 6 6 7 7 7 6 5 4 3 2 1 1 2 2 3 5 6 5 4 5 7 6 6 8 9 8 8 8 7 5 5 5 5 4 4 4 4
4 2 2 2 3 6 6 7 8 6 6 6 6 4 4 2 2 1 1 2 2 3 6 7 6 6 6 6 6 7 8 8 8 8 8 7 6 5 6 5 5 5 4 4
8 9 8 8 7 7 8 7 7 7 5 4 4 3 2 1 0 1 2 3 4 5 6 8 8 8 7 5 5 7 9 8 6 6 6 6 6 5 6 6 6 6 5 4
5 6 5 6 7 6 7 6 6 6 5 5 4 4 2 1 2 3 3 4 5 7 8 9 10 9 7 6 5 7 9 9 7 7 7 6 5 5 4 2 1 2 4 3
6 7 5 6 7 6 7 7 7 7 6 6 5 4 3 2 2 3 3 5 6 8 9 9 10 10 7 6 6 8 8 9 9 7 7 7 6 5 4 3 2 1 4 6
5 4 7 7 8 7 6 6 6 5 5 4 4 3 3 3 4 5 5 6 7 8 8 8 9 10 7 6 7 8 8 8 7 7 7 6 5 4 3 2 2 0 1 3
6 5 6 8 9 7 6 5 5 5 4 2 1 2 3 4 6 7 6 6 6 9 8 8 10 9 7 7 8 8 8 10 9 7 6 5 4 3 3 3 2 1 0 1
12 9 8 8 9 8 7 6 5 5 3 1 1 2 4 5 6 6 6 6 7 9 9 10 11 9 8 7 8 7 7 7 8 6 5 5 4 3 3 3 3 2 1 2
10 11 10 9 10 10 8 6 5 4 3 2 1 2 4 5 7 8 8 8 8 8 8 8 8 8 7 7 7 7 6 6 5 5 4 3 2 2 3 3 4 4 2 2
6 8 8 8 8 9 8 6 5 3 2 1 1 3 4 5 6 8 7 7 8 9 7 6 12 9 8 9 9 6 6 5 4 3 2 2 1 2 2 3 4 3 3 3
8 8 9 9 7 7 6 5 4 3 2 2 2 3 4 5 6 6 6 6 6 7 8 9 8 8 7 7 8 5 5 4 3 2 1 1 1 2 3 3 4 4 3 3
11 10 10 9 7 5 5 5 4 3 2 2 3 4 5 6 5 5 4 6 5 6 7 8 6 6 6 6 6 4 3 3 2 1 0 1 2 2 3 3 3 3 3 2
10 9 9 8 7 5 4 3 3 3 2 2 3 3 4 5 5 4 4 5 6 7 6 5 5 6 6 6 4 3 3 2 1 1 1 1 2 2 2 3 2 2 2 2
8 8 8 7 6 5 4 3 3 3 3 2 2 2 3 4 3 3 4 4 5 7 5 4 7 8 8 4 3 3 3 3 2 2 2 1 1 1 2 2 2 1 1 1
8 7 7 6 6 5 4 2 2 2 2 2 2 2 2 2 2 2 3 5 6 6 4 6 8 8 7 4 3 3 3 3 2 2 2 1 1 1 1 1 1 1 1 1
8 7 6 6 5 4 3 3 2 1 1 0 1 2 1 1 2 3 3 4 6 5 4 6 8 8 5 3 3 3 3 3 2 2 2 1 1 0 0 1 1 1 2 2
6 5 4 4 3 3 2 2 2 1 1 0 1 1 2 2 2 3 3 3 4 4 4 3 4 5 3 3 3 3 3 3 3 2 2 2 2 2 2 2 3 2 2 3
6 5 4 3 2 2 2 2 2 1 1 1 1 2 2 2 2 3 3 3 3 3 3 3 3 4 4 4 4 3 3 3 3 3 3 3 3 3 3 4 3 3 3 4
Wind_Direction
182 152 158 176 182 181 197 205 207 219 200 204 197 186 175 153 137 118 100 79 68 60 45 33 28 21 13 7 6 1 2 4 356 345 339 337 336 331 325 320 310 302 296 288
150 143 155 203 206 199 209 217 223 229 230 207 182 155 155 155 148 133 113 92 75 62 49 37 28 14 7 2 356 353 357 351 341 340 340 340 334 328 324 320 316 313 305 297
188 133 91 244 217 195 203 205 193 223 230 163 170 180 175 164 150 138 124 106 80 56 39 28 19 6 357 342 338 348 350 344 343 341 338 334 329 327 326 322 318 313 306 301
147 147 215 236 184 183 199 218 205 208 179 174 172 145 123 140 142 136 127 111 83 47 24 16 2 358 344 340 349 352 352 349 347 343 336 330 328 325 322 317 313 308 305 300
172 203 251 284 218 172 184 238 211 203 169 134 120 99 92 126 132 133 128 122 109 49 12 355 356 353 347 348 350 352 349 343 339 336 329 327 325 321 318 314 310 305 301 302
172 187 223 241 201 170 133 256 214 183 173 161 147 165 194 173 142 124 109 101 72 17 4 354 347 350 348 340 340 337 332 326 323 321 318 314 311 310 309 306 303 305 304 304
184 205 251 240 170 127 167 234 177 166 162 157 171 169 139 140 139 129 111 84 35 5 341 327 332 342 331 323 318 315 317 314 312 310 305 299 300 301 303 303 302 302 301 302
174 199 238 186 151 178 193 122 123 121 126 127 121 114 124 136 143 139 117 359 352 332 316 316 329 333 315 307 308 316 315 310 307 304 301 299 297 299 297 295 297 297 299 301
188 206 209 170 184 166 134 135 141 133 129 128 129 136 141 147 156 180 258 299 318 313 308 311 317 317 302 303 317 318 312 305 302 301 295 289 287 291 294 287 285 290 292 294
190 230 190 159 125 130 134 136 137 132 132 132 138 151 160 172 195 230 275 294 308 310 302 302 311 307 291 301 311 307 301 300 299 297 295 290 280 275 277 278 277 278 280 285
201 188 109 235 189 154 132 123 123 121 127 137 143 156 169 186 219 253 296 321 320 302 295 296 307 303 299 301 305 299 294 291 290 285 284 286 279 266 266 257 249 262 264 261
202 192 177 193 183 159 143 143 140 135 127 115 127 145 147 173 148 358 341 336 322 312 305 305 307 301 300 296 292 291 294 292 288 286 282 277 280 287 275 267 274 272 274 272
175 161 161 153 152 150 144 138 129 126 128 122 95 78 74 51 29 8 343 332 321 313 307 305 302 298 297 293 287 278 279 285 284 280 277 272 267 265 277 296 313 350 355 345
149 130 136 158 160 143 127 118 108 98 89 89 85 68 51 15 342 333 322 318 308 301 296 294 294 292 296 296 288 279 277 277 273 271 268 264 257 251 247 242 258 328 0 23
175 163 157 141 126 117 113 118 124 126 114 95 74 54 19 340 316 309 307 303 298 290 287 289 290 292 299 297 289 283 280 276 272 271 267 262 254 243 231 214 196 216 345 7
150 107 119 138 150 145 139 147 157 155 137 123 72 6 337 311 297 294 292 294 297 297 297 293 288 290 295 291 287 283 275 273 273 272 271 262 246 227 207 182 163 148 87 357
151 170 174 177 177 172 169 161 153 144 144 177 269 317 312 307 302 297 298 294 285 284 285 284 286 290 287 281 279 281 279 277 273 270 263 255 240 216 189 167 157 143 107 72
181 181 174 172 173 165 155 146 142 148 167 174 284 301 303 304 301 303 305 306 301 293 282 278 284 289 287 286 280 276 274 275 272 267 264 253 233 195 164 151 144 134 104 74
137 132 125 120 127 137 142 150 155 157 168 203 258 278 281 279 281 289 299 305 307 306 304 303 310 315 301 292 290 278 275 274 273 271 261 233 194 153 140 136 132 126 119 105
122 118 117 113 111 122 136 142 147 164 194 205 240 274 285 284 285 291 295 288 276 276 294 301 301 297 296 296 302 292 283 277 272 269 255 203 151 132 123 122 124 123 119 114
138 134 132 131 125 123 136 145 155 178 203 210 226 256 274 284 287 287 293 296 292 292 298 301 302 302 303 307 306 302 299 296 293 287 210 125 116 114 113 116 118 121 120 118
141 138 137 135 133 135 143 152 164 178 201 225 240 254 274 288 294 287 267 267 293 306 308 307 306 312 324 326 323 324 329 336 345 12 64 90 109 118 118 120 122 124 125 128
134 133 135 139 140 139 139 156 171 180 195 216 238 258 268 276 279 286 299 299 306 314 321 315 320 334 345 343 340 343 350 355 2 21 42 58 78 101 117 124 130 139 146 156
128 129 129 128 129 133 140 157 170 182 197 220 237 254 265 284 290 271 281 305 318 325 326 324 340 352 353 347 345 349 355 358 2 12 26 39 53 72 96 127 159 174 185 205
125 124 128 135 138 143 147 151 138 133 132 218 298 302 294 275 274 294 306 314 324 330 326 333 344 352 353 342 343 345 347 348 348 351 357 0 1 354 291 238 233 235 234 235
122 124 126 127 130 137 143 141 136 139 134 11 314 315 320 315 310 309 312 316 322 324 325 326 331 334 333 332 331 331 329 329 333 334 326 318 302 288 271 262 258 253 251 249
106 106 109 105 99 111 122 128 134 147 171 194 278 303 317 322 323 324 322 317 316 315 314 316 317 316 315 314 312 310 308 305 302 297 292 283 274 267 266 263 260 256 254 252